[ ตารางข้อมูล ] [ Min-Max ] [ วันนี้2 ] [ วันนี้4 ] [ เทียบ-A 3วัน ] [ เทียบ-B 4วัน ]   

วันนี้2   [ ◀ ช่วงเก่ากว่า ] [ ช่วงที่ 29 ] [ ช่วงใหม่กว่า ▶ ] [ ล่าสุด ]    [ 3 ชั่วโมง ] [ 6 ชั่วโมง ] [ 12 ชั่วโมง ] [ 24 ชั่วโมง ]   วันนี้2

อุณภูมิในตู้ Knockdown4529  ราย 12 ชั่วโมง  ที่วัดได้ ในช่วงวันเวลา 17/08/2026 (05:39) ถึง 17/08/2026 (17:39) 
ความชื้นในตู้ Knockdown4529  ราย 12 ชั่วโมง  ที่วัดได้ ในช่วงวันเวลา 17/08/2026 (05:39) ถึง 17/08/2026 (17:39) 
การใช้ไฟฟ้าในตู้ Knockdown4529  ราย 12 ชั่วโมง  ที่วัดได้ ในช่วงวันเวลา 17/08/2026 (05:39) ถึง 17/08/2026 (17:39) 

  DS18B20SHTC3PZEM-004TWiFi 
IDDate d/m/Y & Timedata1
สูง
data2
ต่ำ
data3
นอก
temp
pcb
hum
pcb
VoltAmpWattrssiTime
 13498  17/08/2026 17:35:10  33.1  32.7  31.9  34.1  63.8  233.1  0.04  4.5  -76  17:35 
 13497  17/08/2026 17:30:26  33.2  32.7  32.0  34.1  63.8  233.4  0.04  4.5  -77  17:30 
 13496  17/08/2026 17:25:43  33.2  32.7  31.9  34.2  63.9  233.4  0.04  4.5  -77  17:25 
 13495  17/08/2026 17:21:00  33.2  32.7  32.0  34.1  63.6  232.8  0.04  4.6  -80  17:21 
 13494  17/08/2026 17:16:16  33.3  32.8  32.1  34.2  63.6  233.6  0.04  4.5  -76  17:16 
 13493  17/08/2026 17:11:32  33.3  32.8  32.2  34.3  63.5  233.4  0.04  4.5  -78  17:11 
 13492  17/08/2026 17:06:48  33.4  32.8  32.2  34.2  63.5  233.6  0.04  4.5  -78  17:06 
 13491  17/08/2026 17:02:05  33.4  32.8  32.3  34.1  63.3  233.6  0.04  4.6  -78  17:02 
 13490  17/08/2026 16:57:21  33.4  32.8  32.4  34.3  63.4  233.2  0.04  4.5  -78  16:57 
 13489  17/08/2026 16:52:36  33.5  32.8  32.4  34.4  63.4  233.0  0.04  4.5  -78  16:52 
 13488  17/08/2026 16:47:52  33.6  32.8  32.3  34.5  63.4  232.4  0.04  4.5  -77  16:47 
 13487  17/08/2026 16:43:09  33.6  32.8  32.3  34.3  63.2  231.2  0.04  4.5  -77  16:43 
 13486  17/08/2026 16:38:26  33.6  32.8  32.4  34.3  63.1  231.7  0.04  4.6  -78  16:38 
 13485  17/08/2026 16:33:42  33.7  32.8  32.4  34.6  63.1  232.3  0.04  4.6  -75  16:33 
 13484  17/08/2026 16:28:59  33.8  32.8  32.4  34.7  63.0  232.1  0.04  4.5  -78  16:28 
 13483  17/08/2026 16:24:15  33.8  32.8  32.5  34.6  62.9  232.9  0.04  4.5  -76  16:24 
 13482  17/08/2026 16:19:32  33.9  32.8  32.8  34.7  62.9  229.9  0.04  4.5  -78  16:19 
 13481  17/08/2026 16:14:48  33.9  32.8  32.7  34.6  62.6  232.7  0.04  4.6  -78  16:14 
 13480  17/08/2026 16:10:05  33.9  32.8  32.6  34.7  62.7  233.2  0.04  4.6  -76  16:10 
 13479  17/08/2026 16:05:22  34.0  32.8  32.8  34.6  62.5  233.3  0.04  4.6  -77  16:05 
 13478  17/08/2026 16:00:38  34.1  32.8  33.0  34.8  62.4  233.6  0.04  4.6  -77  16:00 
 13477  17/08/2026 15:55:55  34.1  32.8  33.0  34.8  62.4  232.9  0.04  4.5  -77  15:55 
 13476  17/08/2026 15:51:11  34.1  32.8  32.9  34.6  62.3  233.5  0.04  4.6  -75  15:51 
 13475  17/08/2026 15:46:28  34.2  32.8  33.1  34.8  62.3  232.4  0.04  4.5  -81  15:46 

Data every 5 minute.


ใช้เวลาประมวลผล 0.04514 วินาที